Weather History for Colby, KS

Change the Weather History Date:

Thursday, January 31, 2013

  Actual Average (KGLD) Record (KGLD)
Temperature  
Mean Temperature 27 °F 30 °F  
Max Temperature 33 °F 43 °F 75 °F (1989)
Min Temperature 21 °F 17 °F -19 °F (1951)
Degree Days  
Heating Degree Days 38 35  
Month to date heating degree days 1087  
Since 1 July heating degree days 3503  
Cooling Degree Days 0 0  
Month to date cooling degree days 0  
Year to date cooling degree days 0  
Moisture  
Dew Point 23 °F    
Average Humidity 78    
Maximum Humidity 100    
Minimum Humidity 55    
Precipitation  
Precipitation 0.00 in 0.01 in 0.17 in (2014)
Month to date precipitation 0.38  
Year to date precipitation 0.38  
Snow  
Snow 0.00 in 0.20 in - ()
Month to date snowfall 5.9  
Since 1 July snowfall 18.6  
Snow Depth -    
Sea Level Pressure  
Sea Level Pressure 30.11 in    
Wind  
Wind Speed 11 mph (NW)    
Max Wind Speed 21 mph    
Max Gust Speed 29 mph    
Visibility 10 miles    
Events      
T = Trace of Precipitation, MM = Missing Value Source: NWS Daily Summary

Daily Weather History Graph

Daily Weather History Graph

Search for Another Location

Airport:

Trip Planner

Search our weather history database for the weather conditions in past years. The results will help you decide how hot, cold, wet, or windy it might be!

Date:

Astronomy

Jan. 31, 2013 Rise Set
Actual Time 7:52 AM CST 6:03 PM CST
Civil Twilight 7:23 AM CST 6:32 PM CST
Nautical Twilight 6:51 AM CST 7:04 PM CST
Astronomical Twilight 6:20 AM CST 7:35 PM CST
Moon 11:06 PM CST (1/31) 9:54 AM CST (1/31)
Length of Visible Light 11h 08m
Length of Day
10h 11m
Waning Gibbous, 79% of the Moon is Illuminated
Jan 31
Waning Gibbous
Feb 3
Last Quarter
Feb 10
New
Feb 17
First Quarter
Feb 25
Full

Hourly Weather History & Observations

Time (CST) Temp. Windchill Dew Point Humidity Pressure Visibility Wind Dir Wind Speed Gust Speed Precip Events Conditions
12:15 AM 32.0 °F 23.6 °F 24.8 °F 75% 29.90 in 10.0 mi West 10.4 mph - N/A   Mostly Cloudy
12:35 AM 32.0 °F 23.6 °F 26.6 °F 80% 29.89 in 10.0 mi West 10.4 mph - N/A   Overcast
12:55 AM 32.0 °F 23.0 °F 28.4 °F 87% 29.90 in 10.0 mi West 11.5 mph - N/A   Mostly Cloudy
1:15 AM 33.8 °F 24.8 °F 28.4 °F 81% 29.90 in 10.0 mi West 12.7 mph - N/A   Overcast
1:35 AM 33.8 °F 25.3 °F 28.4 °F 81% 29.90 in 10.0 mi West 11.5 mph - N/A   Mostly Cloudy
1:55 AM 33.8 °F 24.8 °F 28.4 °F 81% 29.90 in 10.0 mi West 12.7 mph - N/A   Overcast
2:15 AM 33.8 °F 27.0 °F 28.4 °F 81% 29.90 in 10.0 mi West 8.1 mph - N/A   Overcast
2:35 AM 33.8 °F 26.4 °F 30.2 °F 87% 29.91 in 10.0 mi West 9.2 mph - N/A   Overcast
2:55 AM 33.8 °F 27.0 °F 30.2 °F 87% 29.92 in 10.0 mi WNW 8.1 mph - N/A   Overcast
3:15 AM 33.8 °F 27.0 °F 30.2 °F 87% 29.92 in 10.0 mi West 8.1 mph - N/A   Overcast
3:35 AM 32.0 °F 26.4 °F 30.2 °F 93% 29.91 in 10.0 mi West 5.8 mph - N/A   Overcast
3:55 AM 32.0 °F 23.6 °F 30.2 °F 93% 29.92 in 10.0 mi North 10.4 mph - N/A   Overcast
4:15 AM 33.8 °F 27.0 °F 28.4 °F 81% 29.93 in 10.0 mi North 8.1 mph - N/A   Overcast
4:35 AM 33.8 °F 26.4 °F 28.4 °F 81% 29.93 in 10.0 mi NNW 9.2 mph - N/A   Overcast
4:55 AM 32.0 °F 24.8 °F 28.4 °F 87% 29.93 in 10.0 mi NNW 8.1 mph - N/A   Overcast
5:15 AM 32.0 °F 24.2 °F 28.4 °F 87% 29.93 in 10.0 mi NW 9.2 mph - N/A   Mostly Cloudy
5:35 AM 32.0 °F 23.6 °F 28.4 °F 87% 29.95 in 10.0 mi NW 10.4 mph - N/A   Overcast
6:15 AM 32.0 °F 24.2 °F 28.4 °F 87% 29.97 in 10.0 mi NW 9.2 mph - N/A   Overcast
6:35 AM 32.0 °F 21.2 °F 26.6 °F 80% 29.98 in 10.0 mi NW 16.1 mph - N/A   Overcast
6:55 AM 32.0 °F 21.6 °F 26.6 °F 80% 30.00 in 10.0 mi NW 15.0 mph - N/A   Overcast
7:15 AM 32.0 °F 21.6 °F 26.6 °F 80% 30.01 in 10.0 mi NW 15.0 mph 23.0 mph N/A   Overcast
7:55 AM 32.0 °F 20.8 °F 26.6 °F 80% 30.03 in 10.0 mi NNW 17.3 mph - N/A   Mostly Cloudy
8:15 AM 32.0 °F 23.0 °F 26.6 °F 80% 30.03 in 10.0 mi NW 11.5 mph - N/A   Mostly Cloudy
8:35 AM 32.0 °F 24.8 °F 28.4 °F 87% 30.05 in 10.0 mi NW 8.1 mph - N/A   Mostly Cloudy
8:55 AM 32.0 °F 25.6 °F 28.4 °F 87% 30.06 in 10.0 mi NW 6.9 mph - N/A   Mostly Cloudy
9:15 AM 32.0 °F 24.2 °F 28.4 °F 87% 30.08 in 10.0 mi WNW 9.2 mph - N/A   Scattered Clouds
9:35 AM 32.0 °F 23.0 °F 28.4 °F 87% 30.09 in 10.0 mi NW 11.5 mph - N/A   Scattered Clouds
9:55 AM 33.8 °F 23.9 °F 26.6 °F 75% 30.10 in 10.0 mi NW 15.0 mph 19.6 mph N/A   Mostly Cloudy
10:15 AM 33.8 °F 22.2 °F 26.6 °F 75% 30.11 in 10.0 mi NNW 20.7 mph 24.2 mph N/A   Mostly Cloudy
10:35 AM 33.8 °F 22.2 °F 26.6 °F 75% 30.13 in 10.0 mi NNW 20.7 mph 28.8 mph N/A   Scattered Clouds
10:55 AM 33.8 °F 22.5 °F 23.0 °F 65% 30.14 in 10.0 mi NNW 19.6 mph - N/A   Clear
11:15 AM 33.8 °F 23.9 °F 24.8 °F 70% 30.16 in 10.0 mi North 15.0 mph 26.5 mph N/A   Clear
11:35 AM 33.8 °F 24.8 °F 26.6 °F 75% 30.17 in 10.0 mi NNE 12.7 mph - N/A   Clear
11:55 AM 32.0 °F 22.5 °F 24.8 °F 75% 30.18 in 10.0 mi NNE 12.7 mph 23.0 mph N/A   Clear
12:15 PM 32.0 °F 21.2 °F 23.0 °F 69% 30.18 in 10.0 mi NE 16.1 mph 20.7 mph N/A   Clear
12:35 PM 32.0 °F 22.5 °F 24.8 °F 75% 30.18 in 10.0 mi NNE 12.7 mph 18.4 mph N/A   Scattered Clouds
12:55 PM 32.0 °F 21.6 °F 23.0 °F 69% 30.19 in 10.0 mi North 15.0 mph 21.9 mph N/A   Mostly Cloudy
1:15 PM 32.0 °F 21.2 °F 23.0 °F 69% 30.19 in 10.0 mi NNE 16.1 mph 24.2 mph N/A   Scattered Clouds
1:35 PM 32.0 °F 23.0 °F 21.2 °F 64% 30.19 in 10.0 mi North 11.5 mph 17.3 mph N/A   Clear
1:55 PM 32.0 °F 22.5 °F 21.2 °F 64% 30.19 in 10.0 mi North 12.7 mph 19.6 mph N/A   Clear
2:15 PM 30.2 °F 20.2 °F 19.4 °F 64% 30.20 in 10.0 mi North 12.7 mph 17.3 mph N/A   Clear
2:35 PM 30.2 °F 20.2 °F 19.4 °F 64% 30.20 in 10.0 mi North 12.7 mph - N/A   Clear
2:55 PM 30.2 °F 21.9 °F 19.4 °F 64% 30.19 in 10.0 mi North 9.2 mph 16.1 mph N/A   Clear
3:15 PM 32.0 °F 22.1 °F 19.4 °F 60% 30.19 in 10.0 mi NNW 13.8 mph - N/A   Clear
3:35 PM 32.0 °F 23.0 °F 19.4 °F 60% 30.20 in 10.0 mi NNW 11.5 mph 18.4 mph N/A   Mostly Cloudy
3:55 PM 32.0 °F 24.2 °F 19.4 °F 60% 30.20 in 10.0 mi NNW 9.2 mph - N/A   Mostly Cloudy
4:15 PM 32.0 °F 23.0 °F 19.4 °F 60% 30.20 in 10.0 mi North 11.5 mph 16.1 mph N/A   Mostly Cloudy
4:35 PM 32.0 °F 24.8 °F 19.4 °F 60% 30.20 in 10.0 mi NNW 8.1 mph - N/A   Mostly Cloudy
4:55 PM 32.0 °F 26.4 °F 19.4 °F 60% 30.20 in 10.0 mi NNW 5.8 mph - N/A   Scattered Clouds
5:15 PM 32.0 °F 26.4 °F 17.6 °F 55% 30.21 in 10.0 mi North 5.8 mph - N/A   Scattered Clouds
5:35 PM 32.0 °F 25.6 °F 17.6 °F 55% 30.21 in 10.0 mi North 6.9 mph - N/A   Clear
5:55 PM 28.4 °F 22.2 °F 17.6 °F 64% 30.20 in 10.0 mi NE 5.8 mph - N/A   Clear
6:15 PM 24.8 °F 16.9 °F 15.8 °F 69% 30.21 in 10.0 mi NE 6.9 mph - N/A   Clear
6:35 PM 21.2 °F 11.7 °F 15.8 °F 80% 30.22 in 10.0 mi ESE 8.1 mph - N/A   Clear
6:55 PM 23.0 °F 15.8 °F 15.8 °F 74% 30.23 in 10.0 mi ENE 5.8 mph - N/A   Clear
7:15 PM 21.2 °F 12.6 °F 15.8 °F 80% 30.24 in 10.0 mi SSE 6.9 mph - N/A   Scattered Clouds
7:35 PM 24.8 °F 19.1 °F 17.6 °F 74% 30.25 in 10.0 mi SE 4.6 mph - N/A   Mostly Cloudy
7:55 PM 24.8 °F 16.1 °F 17.6 °F 74% 30.25 in 10.0 mi SE 8.1 mph - N/A   Mostly Cloudy
8:15 PM 23.0 °F 13.1 °F 17.6 °F 80% 30.26 in 10.0 mi SE 9.2 mph - N/A   Mostly Cloudy
8:35 PM 23.0 °F 13.9 °F 17.6 °F 80% 30.27 in 10.0 mi SSE 8.1 mph - N/A   Mostly Cloudy
8:55 PM 23.0 °F 13.9 °F 19.4 °F 86% 30.27 in 10.0 mi South 8.1 mph - N/A   Overcast
9:15 PM 23.0 °F 15.8 °F 19.4 °F 86% 30.26 in 10.0 mi SSE 5.8 mph - N/A   Overcast
9:35 PM 23.0 °F 13.9 °F 19.4 °F 86% 30.27 in 10.0 mi South 8.1 mph - N/A   Overcast
9:55 PM 23.0 °F 13.9 °F 19.4 °F 86% 30.26 in 10.0 mi South 8.1 mph - N/A   Overcast
10:15 PM 23.0 °F 13.9 °F 19.4 °F 86% 30.26 in 10.0 mi South 8.1 mph - N/A   Overcast
10:35 PM 23.0 °F 11.7 °F 19.4 °F 86% 30.25 in 10.0 mi South 11.5 mph - N/A   Overcast
10:55 PM 23.0 °F 13.1 °F 21.2 °F 93% 30.25 in 10.0 mi SSW 9.2 mph - N/A   Overcast
11:15 PM 23.0 °F 12.4 °F 23.0 °F 100% 30.25 in 10.0 mi SSW 10.4 mph - N/A   Overcast
11:35 PM 23.0 °F 13.1 °F 21.2 °F 93% 30.25 in 10.0 mi SSW 9.2 mph - N/A   Scattered Clouds
11:55 PM 21.2 °F 13.6 °F 21.2 °F 100% 30.24 in 10.0 mi SSW 5.8 mph - N/A   Clear